Terminal Aerodrome Forecast
Issued by NWS

Home | Current Version | Previous Version | Text Only | Print | Product List | Glossary On
Versions: 1 2 3 4 5 6 7 8 9 10 11 12 13 14
000
FTAK31 PANC 301130
TAFAAQ
TAF
PAAQ 301130Z 3012/3112 VRB04KT P6SM OVC035
     FM301700 14009KT P6SM SCT035 BKN050
     FM310100 14014G22KT P6SM OVC050=

USA.gov is the U.S. government's official web portal to all federal, state and local government web resources and services.